Total_Precipitation_Accumulation
2.70 2.92 3.83 3.83 3.35 3.03 2.86 2.76 2.72 2.75 2.48 2.44 2.61 2.63 2.82 2.98 3.10 3.06 3.01 3.22 3.59 4.19 4.70 4.72 4.40 4.08 3.85 3.64 3.38 3.09 2.99 3.06 3.24 3.44 3.59 3.72 3.90 3.83 3.87 3.71 3.52 2.69 2.68
2.40 2.68 3.55 3.70 3.20 2.92 2.79 2.69 2.75 2.57 2.44 2.51 2.68 2.74 2.98 3.14 3.15 3.09 3.14 3.35 3.58 4.16 4.61 4.27 3.84 3.56 3.48 3.31 3.00 2.80 2.89 3.22 3.42 3.66 3.84 3.77 4.06 4.11 3.95 3.66 3.61 2.69 2.53
2.01 2.19 2.75 3.32 3.17 2.90 2.73 2.68 2.63 2.42 2.40 2.59 2.80 2.81 2.95 3.07 3.18 3.29 3.47 3.63 3.87 4.29 4.16 3.72 3.27 3.11 3.04 2.91 2.81 2.78 3.05 3.51 3.69 3.98 4.26 3.37 3.35 4.00 3.96 3.63 3.29 2.62 2.34
1.66 1.86 2.24 2.78 2.89 2.66 2.48 2.46 2.43 2.37 2.40 2.66 2.97 2.85 2.91 3.01 3.18 3.41 3.77 3.80 3.87 3.84 3.46 3.32 2.98 2.77 2.59 2.63 2.65 2.75 3.12 3.47 3.86 4.24 4.05 2.91 2.65 3.38 3.57 3.30 3.11 2.65 2.26
1.47 1.69 2.22 2.54 2.56 2.52 2.53 2.69 2.61 2.62 2.68 2.93 3.03 2.81 2.82 2.84 2.99 3.30 3.88 3.81 3.54 3.24 3.02 3.04 2.79 2.64 2.34 2.27 2.46 2.73 3.01 3.43 4.00 3.78 2.94 2.79 2.77 3.06 3.02 2.87 2.96 2.68 2.26
1.34 1.67 2.14 2.30 2.07 2.15 2.49 2.62 2.69 2.81 2.99 3.13 2.89 2.82 2.78 2.81 2.84 3.04 3.37 3.33 3.19 2.90 2.81 2.75 2.60 2.40 2.26 2.23 2.48 2.77 3.11 3.77 3.89 2.72 2.39 2.52 2.52 2.83 2.84 2.91 2.89 2.66 2.41
1.42 1.75 1.91 2.13 1.89 1.77 1.99 2.30 2.61 2.91 3.23 3.13 2.76 2.57 2.51 2.52 2.57 2.66 2.81 2.85 2.83 2.67 2.62 2.55 2.44 2.21 2.26 2.25 2.42 2.68 3.12 3.73 3.29 2.45 2.41 2.62 2.49 2.44 2.65 2.90 2.95 2.71 2.58
1.47 1.61 1.85 2.03 1.83 1.74 1.87 2.00 2.25 2.72 3.04 2.84 2.52 2.36 2.26 2.17 2.17 2.26 2.45 2.63 2.62 2.46 2.32 2.27 2.24 2.17 2.16 2.09 2.17 2.55 3.01 3.02 2.60 2.25 2.21 2.48 2.30 2.28 2.57 2.79 2.83 2.76 2.72
1.69 1.89 1.90 1.76 1.75 1.92 2.12 2.24 2.28 2.58 2.69 2.55 2.44 2.29 2.15 2.05 2.11 2.13 2.16 2.39 2.46 2.38 2.29 2.23 2.17 2.07 2.08 2.05 2.15 2.49 2.80 2.93 2.63 2.48 2.17 2.28 2.06 2.28 2.71 2.75 2.69 2.75 2.82
1.89 1.90 1.83 1.65 1.70 1.76 2.02 2.44 2.54 2.56 2.56 2.50 2.39 2.31 2.17 2.09 2.24 2.26 2.04 2.36 2.48 2.56 2.48 2.46 2.49 2.19 2.15 2.29 2.42 2.80 3.05 2.94 2.52 2.59 2.76 2.31 2.03 2.38 2.92 2.94 2.70 2.69 2.82
2.15 2.04 1.85 1.51 1.65 1.86 2.09 2.25 2.41 2.46 2.62 2.72 2.67 2.51 2.51 2.62 2.62 2.72 2.45 2.86 2.93 2.95 2.86 2.85 2.90 2.75 2.67 2.54 2.76 3.06 3.18 2.80 2.74 3.02 2.97 2.26 2.15 2.69 3.20 3.04 2.87 2.90 2.92
2.41 2.22 1.99 1.72 1.76 2.04 2.02 2.05 2.28 2.28 2.50 2.67 2.86 2.73 3.05 3.37 3.19 2.52 2.87 3.37 3.58 3.59 3.46 3.49 3.60 3.36 3.01 2.75 3.33 3.71 3.16 3.03 3.17 3.19 3.02 2.69 2.78 3.26 3.66 3.42 3.29 3.25 3.14
2.36 2.27 2.21 2.07 2.08 2.01 2.15 2.13 2.33 2.54 2.97 2.90 2.85 2.84 3.30 3.20 2.90 2.69 3.04 3.54 3.99 3.77 3.56 3.67 3.82 3.35 3.38 3.70 4.04 4.08 3.60 3.47 3.50 3.45 3.21 3.10 3.37 3.89 4.39 4.18 3.64 3.41 3.32
2.81 2.69 2.61 2.51 2.46 2.51 2.46 2.35 2.29 2.41 2.70 2.84 3.09 2.84 3.19 3.50 3.44 3.38 3.73 3.71 3.99 4.11 4.47 4.22 4.34 4.08 3.99 3.80 3.96 4.21 4.15 4.23 3.86 3.98 4.03 3.74 3.83 4.30 4.87 4.98 4.41 3.92 3.62
3.21 3.10 3.09 3.00 3.01 3.09 3.10 2.96 2.43 2.60 2.72 2.86 3.20 3.24 3.37 3.74 3.92 3.99 4.02 3.97 3.65 3.93 4.38 4.66 4.24 4.55 4.56 4.12 3.81 3.73 3.83 3.98 4.09 4.37 4.35 4.54 4.43 4.49 5.09 5.45 5.09 4.72 4.44
3.31 3.55 3.77 3.69 3.60 3.68 3.63 3.54 3.31 3.10 3.30 3.30 3.49 3.73 3.93 4.29 4.53 4.47 4.27 4.19 3.77 3.68 4.02 4.25 4.24 4.75 4.56 4.26 3.61 3.46 3.55 3.92 4.22 4.30 4.39 4.88 4.80 4.61 4.77 5.35 5.70 5.63 5.24
3.48 4.09 4.48 4.50 4.38 4.43 4.44 4.16 3.86 3.80 3.81 4.10 4.41 4.49 4.51 4.66 5.01 4.80 4.54 4.11 3.84 3.81 4.06 4.05 4.10 4.26 4.02 3.89 3.62 3.66 3.71 3.91 4.04 4.25 4.50 4.85 4.71 4.35 4.35 4.72 5.50 5.99 6.18
3.83 4.55 4.96 5.06 5.26 5.17 5.25 5.04 4.61 4.50 4.52 4.58 4.73 4.95 4.73 4.71 4.65 4.76 4.44 3.91 3.90 3.83 3.92 4.14 4.01 4.09 4.06 4.02 3.97 3.73 3.77 3.87 3.59 3.75 3.99 4.16 4.44 4.02 4.16 4.40 4.83 5.42 6.31
4.22 4.96 5.53 6.11 6.32 6.14 5.93 5.62 5.32 5.30 5.16 4.99 4.99 5.01 4.89 4.54 4.33 4.60 4.34 4.09 3.93 3.86 3.78 3.55 4.06 4.22 4.25 4.23 3.87 3.80 3.45 3.21 3.07 2.97 3.10 3.12 3.50 3.75 4.02 4.13 4.55 4.98 5.98
4.33 5.10 5.85 6.62 6.82 6.55 6.04 5.86 5.84 5.65 5.34 5.08 4.86 4.86 4.55 4.32 3.94 4.21 3.92 3.83 3.92 4.12 3.99 4.05 4.41 4.42 4.06 4.15 3.66 3.53 3.37 2.95 2.86 2.81 2.67 2.71 2.79 2.88 3.46 4.12 4.85 4.53 4.96
4.48 5.20 5.90 6.55 6.70 6.57 6.25 5.95 5.72 5.28 4.97 4.64 4.39 4.27 4.07 3.76 3.62 4.02 3.65 4.01 3.87 3.85 3.72 3.71 3.97 4.01 3.63 3.80 4.18 3.78 3.18 2.77 2.71 2.57 2.55 2.67 2.53 2.71 3.23 3.95 4.53 4.66 4.36
4.21 4.83 5.26 5.41 5.27 5.19 5.30 5.26 5.00 5.00 4.82 4.76 4.61 4.50 4.04 3.82 3.69 3.44 3.69 3.51 3.48 3.69 3.48 3.45 3.71 3.70 3.33 3.66 3.96 4.10 3.56 3.30 2.77 2.12 2.31 2.51 2.61 2.91 2.95 3.14 3.81 4.36 4.24
3.73 4.09 4.11 4.14 4.17 4.33 4.44 4.40 4.45 4.68 4.77 4.88 4.85 4.64 4.27 4.02 3.82 3.59 3.46 3.32 3.33 3.14 3.34 3.42 3.47 3.62 3.60 3.50 3.55 3.95 3.71 3.35 2.86 2.30 2.12 2.38 2.81 3.16 3.07 3.11 3.13 3.55 3.80
3.00 3.17 3.17 3.32 3.52 3.66 3.76 3.75 3.66 3.70 3.96 4.25 4.55 4.71 4.64 4.33 4.01 3.68 3.43 3.23 3.10 2.90 3.22 2.90 3.06 3.41 3.66 3.34 3.28 3.21 3.21 3.41 3.33 2.91 2.37 2.19 2.45 2.72 2.76 2.64 2.76 3.11 3.44
2.23 2.42 2.50 2.78 3.28 3.51 3.58 3.69 3.65 3.41 3.43 3.55 3.72 3.95 3.96 3.98 3.78 3.37 3.28 3.20 3.02 2.82 2.87 2.88 3.25 3.25 3.22 3.14 3.22 3.17 3.30 3.51 3.29 3.16 2.83 2.67 2.72 2.55 2.41 2.40 2.52 2.75 3.12
1.84 2.01 2.24 2.58 3.17 3.49 3.56 3.46 3.49 3.53 3.62 3.53 3.50 3.61 3.52 3.49 3.40 3.10 2.95 3.09 2.98 2.86 2.92 2.92 3.03 3.08 3.22 3.29 3.28 3.27 3.36 3.35 3.38 3.57 3.21 2.99 2.96 2.60 2.42 2.43 2.54 2.73 2.96